Location: Barrio de Buenos Aires
(28.4500°N, 16.2667°W)
Time: 06:01:08
(UTC+00:00)

In-Cosmos 22 Rocket - Pass Details

Date: 24 January 2020
Orbit: 789 x 889 km, 81.2° (Epoch: 19 February)

Event Time Altitude Azimuth Distance (km) Brightness Sun altitude
Rises 20:40:40 0° 186° (S) 3,468 7.6 -26.9°
Reaches altitude 10° 20:43:07 10° 187° (S) 2,525 6.8 -27.4°
Enters shadow 20:48:46 86° 220° (SW) 872 4.1 -28.7°
